Location: Ocean City
(38.3360°N, 75.0850°W)
Time: 01:04:58
(UTC-05:00)

deb Explorer IX - Pass Details

Date: 20 November 2019
Orbit: 546 x 1104 km, 38.8° (Epoch: 14 December)

Event Time Altitude Azimuth Distance (km) Brightness Sun altitude
Exits shadow 05:31:37 21° 264° (W) 1,575 ? -14.8°
Maximum altitude 05:34:27 39° 208° (SSW) 1,002 ? -14.2°
Drops below altitude 10° 05:38:41 10° 139° (SE) 1,967 ? -13.4°
Sets 05:40:57 0° 131° (SE) 2,809 ? -13.0°
